Hourly Weather Natalinka

Today, 12 June, Saturday

Time Temperature Precipitation Wind Pressure Humidity
00:00 +14°C° 0 mm 2 mps 742 mmHg 97%
01:00 +14°C° 0 mm 2 mps 742 mmHg 97%
02:00 +14°C° 0 mm 2 mps 742 mmHg 97%
03:00 +13°C° 0 mm 2 mps 742 mmHg 97%
04:00 +14°C° 0 mm 2 mps 742 mmHg 96%
05:00 +15°C° 0 mm 1 mps 742 mmHg 95%
06:00 +15°C° 0 mm 1 mps 742 mmHg 95%
07:00 +16°C° 0 mm 1 mps 742 mmHg 90%
08:00 +19°C° 0 mm 1 mps 742 mmHg 86%
09:00 +20°C° 0 mm 1 mps 742 mmHg 82%
10:00 +21°C° 0.1 mm 1 mps 742 mmHg 78%
11:00 +20°C° 0.1 mm 2 mps 742 mmHg 75%
12:00 +21°C° 0.1 mm 2 mps 742 mmHg 71%
13:00 +23°C° 0.1 mm 2 mps 741 mmHg 69%
14:00 +23°C° 0.1 mm 2 mps 741 mmHg 67%
15:00 +23°C° 0 mm 2 mps 741 mmHg 65%
16:00 +23°C° 0 mm 2 mps 741 mmHg 66%
17:00 +23°C° 0 mm 2 mps 741 mmHg 68%
18:00 +23°C° 0 mm 2 mps 741 mmHg 70%
19:00 +20°C° 0.1 mm 2 mps 741 mmHg 75%
20:00 +19°C° 0.1 mm 1 mps 740 mmHg 81%
21:00 +18°C° 0.1 mm 1 mps 740 mmHg 86%
22:00 +16°C° 0.1 mm 1 mps 740 mmHg 87%
23:00 +16°C° 0.1 mm 1 mps 740 mmHg 88%

Tomorrow, 13 June, Sunday

Time Temperature Precipitation Wind Pressure Humidity
00:00 +15°C° 0.1 mm 1 mps 740 mmHg 89%
01:00 +15°C° 0 mm 1 mps 740 mmHg 89%
02:00 +15°C° 0 mm 1 mps 740 mmHg 90%
03:00 +15°C° 0 mm 1 mps 740 mmHg 90%
04:00 +15°C° 0 mm 1 mps 740 mmHg 89%
05:00 +16°C° 0 mm 1 mps 740 mmHg 87%
06:00 +16°C° 0 mm 1 mps 740 mmHg 86%
07:00 +18°C° 0 mm 1 mps 740 mmHg 82%
08:00 +19°C° 0 mm 1 mps 740 mmHg 78%
09:00 +21°C° 0 mm 1 mps 740 mmHg 74%
10:00 +21°C° 0.1 mm 1 mps 740 mmHg 71%
11:00 +21°C° 0.1 mm 2 mps 740 mmHg 69%
12:00 +23°C° 0.1 mm 2 mps 740 mmHg 66%
13:00 +24°C° 0.5 mm 2 mps 740 mmHg 65%
14:00 +24°C° 0.5 mm 3 mps 740 mmHg 64%
15:00 +24°C° 0.5 mm 3 mps 741 mmHg 63%
16:00 +24°C° 0.2 mm 3 mps 741 mmHg 66%
17:00 +24°C° 0.2 mm 3 mps 741 mmHg 69%
18:00 +22°C° 0.2 mm 3 mps 741 mmHg 72%
19:00 +21°C° 0 mm 3 mps 741 mmHg 76%
20:00 +20°C° 0 mm 3 mps 741 mmHg 80%
21:00 +18°C° 0 mm 2 mps 741 mmHg 85%
22:00 +18°C° 0 mm 2 mps 742 mmHg 87%
23:00 +17°C° 0 mm 2 mps 742 mmHg 89%

Day after tomorrow, 14 June, Monday

Time Temperature Precipitation Wind Pressure Humidity
00:00 +17°C° 0 mm 2 mps 742 mmHg 91%
01:00 +17°C° 0 mm 2 mps 742 mmHg 92%
02:00 +16°C° 0 mm 2 mps 743 mmHg 93%
03:00 +16°C° 0 mm 2 mps 743 mmHg 95%
04:00 +16°C° 0 mm 2 mps 743 mmHg 93%
05:00 +17°C° 0 mm 2 mps 744 mmHg 92%
06:00 +17°C° 0 mm 2 mps 744 mmHg 91%
07:00 +19°C° 0 mm 2 mps 744 mmHg 85%
08:00 +20°C° 0 mm 2 mps 745 mmHg 79%
09:00 +23°C° 0 mm 2 mps 745 mmHg 74%
10:00 +24°C° 0 mm 2 mps 745 mmHg 70%
11:00 +25°C° 0 mm 2 mps 746 mmHg 66%
12:00 +25°C° 0 mm 2 mps 746 mmHg 62%
13:00 +26°C° 0.1 mm 2 mps 746 mmHg 61%
14:00 +26°C° 0.1 mm 2 mps 746 mmHg 59%
15:00 +26°C° 0.1 mm 2 mps 746 mmHg 58%
16:00 +26°C° 0.2 mm 1 mps 746 mmHg 61%
17:00 +26°C° 0.2 mm 1 mps 746 mmHg 65%
18:00 +25°C° 0.2 mm 1 mps 746 mmHg 68%
19:00 +24°C° 0.1 mm 1 mps 746 mmHg 73%
20:00 +22°C° 0.1 mm 1 mps 746 mmHg 77%
21:00 +21°C° 0.1 mm 1 mps 746 mmHg 82%
22:00 +20°C° 0 mm 1 mps 746 mmHg 83%
23:00 +20°C° 0 mm 1 mps 746 mmHg 84%

15 June, Tuesday

Time Temperature Precipitation Wind Pressure Humidity
00:00 +17°C° 0 mm 0 mps 746 mmHg 86%
01:00 +17°C° 0 mm 0 mps 746 mmHg 87%
02:00 +18°C° 0 mm 1 mps 746 mmHg 88%
03:00 +18°C° 0 mm 1 mps 746 mmHg 89%
04:00 +19°C° 0 mm 1 mps 746 mmHg 88%
05:00 +17°C° 0 mm 0 mps 746 mmHg 87%
06:00 +18°C° 0 mm 0 mps 746 mmHg 86%
07:00 +21°C° 0 mm 1 mps 746 mmHg 82%
08:00 +22°C° 0 mm 1 mps 746 mmHg 78%
09:00 +24°C° 0 mm 1 mps 746 mmHg 75%
10:00 +24°C° 0.1 mm 1 mps 745 mmHg 72%
11:00 +25°C° 0.1 mm 2 mps 745 mmHg 68%
12:00 +26°C° 0.1 mm 2 mps 745 mmHg 65%
13:00 +26°C° 0.3 mm 2 mps 745 mmHg 64%
14:00 +26°C° 0.3 mm 1 mps 744 mmHg 63%
15:00 +26°C° 0.3 mm 1 mps 744 mmHg 62%
16:00 +26°C° 0.1 mm 1 mps 744 mmHg 66%
17:00 +26°C° 0.1 mm 1 mps 744 mmHg 69%
18:00 +25°C° 0.1 mm 1 mps 743 mmHg 73%
19:00 +24°C° 0.3 mm 1 mps 743 mmHg 77%
20:00 +22°C° 0.3 mm 1 mps 743 mmHg 81%
21:00 +21°C° 0.3 mm 1 mps 743 mmHg 85%
22:00 +19°C° 0.5 mm 2 mps 743 mmHg 88%
23:00 +19°C° 0.5 mm 2 mps 742 mmHg 90%

16 June, Wednesday

Time Temperature Precipitation Wind Pressure Humidity
00:00 +18°C° 0.5 mm 2 mps 742 mmHg 92%
01:00 +18°C° 0.1 mm 3 mps 742 mmHg 93%
02:00 +17°C° 0.1 mm 3 mps 742 mmHg 94%
03:00 +17°C° 0.1 mm 3 mps 742 mmHg 94%
04:00 +17°C° 0 mm 3 mps 742 mmHg 94%
05:00 +17°C° 0 mm 3 mps 742 mmHg 93%
06:00 +18°C° 0 mm 3 mps 742 mmHg 92%
07:00 +19°C° 0 mm 4 mps 742 mmHg 87%
08:00 +20°C° 0 mm 4 mps 743 mmHg 82%
09:00 +21°C° 0 mm 5 mps 743 mmHg 77%
10:00 +22°C° 0 mm 5 mps 743 mmHg 74%
11:00 +23°C° 0 mm 5 mps 743 mmHg 72%
12:00 +25°C° 0 mm 5 mps 743 mmHg 69%
13:00 +25°C° 0.2 mm 5 mps 743 mmHg 69%
14:00 +24°C° 0.2 mm 6 mps 743 mmHg 69%
15:00 +24°C° 0.2 mm 6 mps 743 mmHg 70%
16:00 +23°C° 0 mm 6 mps 744 mmHg 71%
17:00 +23°C° 0 mm 6 mps 744 mmHg 72%
18:00 +23°C° 0 mm 6 mps 744 mmHg 73%
19:00 +21°C° 0 mm 5 mps 745 mmHg 77%
20:00 +20°C° 0 mm 5 mps 745 mmHg 80%
21:00 +18°C° 0 mm 4 mps 746 mmHg 84%
22:00 +18°C° 0 mm 4 mps 746 mmHg 82%
23:00 +17°C° 0 mm 4 mps 747 mmHg 80%

17 June, Thursday

Time Temperature Precipitation Wind Pressure Humidity
00:00 +15°C° 0 mm 4 mps 747 mmHg 78%
01:00 +14°C° 0 mm 4 mps 748 mmHg 79%
02:00 +13°C° 0 mm 4 mps 748 mmHg 79%
03:00 +12°C° 0 mm 3 mps 748 mmHg 80%
04:00 +12°C° 0 mm 3 mps 749 mmHg 79%
05:00 +13°C° 0 mm 3 mps 749 mmHg 79%
06:00 +13°C° 0 mm 3 mps 750 mmHg 79%
07:00 +14°C° 0 mm 4 mps 750 mmHg 73%
08:00 +17°C° 0 mm 4 mps 750 mmHg 68%
09:00 +17°C° 0 mm 5 mps 750 mmHg 62%
10:00 +19°C° 0 mm 5 mps 751 mmHg 59%
11:00 +20°C° 0 mm 5 mps 751 mmHg 56%
12:00 +21°C° 0 mm 5 mps 751 mmHg 53%
13:00 +21°C° 0 mm 5 mps 751 mmHg 53%
14:00 +21°C° 0 mm 5 mps 752 mmHg 54%
15:00 +21°C° 0 mm 5 mps 752 mmHg 54%
16:00 +21°C° 0 mm 5 mps 752 mmHg 58%
17:00 +20°C° 0 mm 4 mps 752 mmHg 61%
18:00 +20°C° 0 mm 4 mps 752 mmHg 65%
19:00 +18°C° 0 mm 4 mps 752 mmHg 69%
20:00 +17°C° 0 mm 3 mps 752 mmHg 74%
21:00 +14°C° 0 mm 3 mps 752 mmHg 78%
22:00 +14°C° 0 mm 3 mps 753 mmHg 78%
23:00 +13°C° 0 mm 3 mps 753 mmHg 78%
Show more